Content
SEND FEEDBACK

Daily
Averages
Monthly
Summary
Greece

THESSALONIKI, GREECE


Home > Europe > Greece
Elevation: 13 feet     Latitude: 40 13N     Longitude: 022 58E

WEATHER
 
SELECT A DAY
Number of Records: 94,720;   Date Range: 7/3/96 - 9/22/14
 
SHARE

PRINT THIS DATA

[ ← Previous Day ]
WEATHER ALMANAC - JANUARY 21, 2013
[ Next Day → ]
[ °C ]   °F
Weather ElementAverageHighLow
Temperature49.5 °F62.6 °F (2:50 pm)37.4 °F (5:50 am)
Dewpoint43.5 °F50 °F (3:50 pm)35.6 °F (4:50 am)
Humidity80.2 %93 % (3:50 am)48 % (2:00 pm)
Barometer29.72 in29.86 in (12:50 am)29.59 in (11:20 pm)
Wind Speed5.1 mph12.7 mph (1:50 pm)
Wind Gust18.4 mph (1:20 pm)
Weather ElementAverage
Visibility5.7 mi
Wind DirectionE (90.4 °)

Weather ElementTotal
Precipitation---
Heating Degree Days15 (Base 65)
Averaged from 51 records on January 21, 2013
WEATHER CONDITIONS BREAKOUT
WIND DIRECTION BREAKOUT
WEATHER BY HOUR - JANUARY 21, 2013
[ °C ]   °F
Local TimeTemperatureDewpointHumidityBarometerVisibilityWind DirectionWind SpeedGust SpeedPrecipitationEventsConditions
12:50 AM44.6 °F39.2 °F81 %29.86 in6.2 miCalmScattered Clouds
1:20 AM44.6 °F39.2 °F81 %29.83 in6.2 miCalmScattered Clouds
1:50 AM42.8 °F39.2 °F87 %29.83 in6.2 miVariable3.5 mphScattered Clouds
2:00 AM43.0 °F39.0 °F81 %29.84 in6.0 mi°3.5 mphScattered Clouds
2:20 AM42.8 °F39.2 °F87 %29.83 in6.2 miVariable3.5 mphPartly Cloudy
2:50 AM42.8 °F39.2 °F87 %29.83 in6.2 miCalmPartly Cloudy
3:20 AM42.8 °F39.2 °F87 %29.83 in6.2 miCalmPartly Cloudy
3:50 AM39.2 °F37.4 °F93 %29.80 in6.2 miCalmPartly Cloudy
4:20 AM39.2 °F37.4 °F93 %29.80 in6.2 miCalmPartly Cloudy
4:50 AM39.2 °F35.6 °F87 %29.80 in6.2 miESE (110°)5.8 mphPartly Cloudy
5:20 AM39.2 °F35.6 °F87 %29.80 in6.2 miESE (110°)5.8 mphPartly Cloudy
5:50 AM37.4 °F35.6 °F93 %29.80 in6.2 miVariable3.5 mphPartly Cloudy
6:20 AM37.4 °F35.6 °F93 %29.80 in6.2 miVariable3.5 mphPartly Cloudy
6:50 AM39.2 °F35.6 °F87 %29.80 in5.6 miCalmScattered Clouds
7:20 AM37.4 °F35.6 °F93 %29.80 in4.3 miEast (100°)4.6 mphMostly Cloudy
7:50 AM39.2 °F37.4 °F93 %29.80 in3.1 miVariable2.3 mphMostly Cloudy
8:00 AM39.0 °F37.0 °F89 %29.81 in3.0 mi°2.3 mphMist
8:20 AM37.4 °F35.6 °F93 %29.80 in3.7 miVariable3.5 mphMostly Cloudy
8:50 AM39.2 °F37.4 °F93 %29.80 in3.7 miVariable3.5 mphMostly Cloudy
9:20 AM42.8 °F41.0 °F93 %29.80 in3.7 miVariable2.3 mphMostly Cloudy
9:50 AM46.4 °F42.8 °F87 %29.80 in4.3 miCalmMostly Cloudy
10:20 AM48.2 °F44.6 °F87 %29.80 in4.3 miVariable2.3 mphMostly Cloudy
10:50 AM50.0 °F44.6 °F82 %29.80 in5.6 miVariable3.5 mphScattered Clouds
11:20 AM50.0 °F44.6 °F82 %29.80 in5.6 miWNW (290°)4.6 mphMostly Cloudy
11:50 AM50.0 °F44.6 °F82 %29.77 in5.6 miVariable2.3 mphMostly Cloudy
12:20 PM50.0 °F44.6 °F82 %29.74 in5.6 miVariable2.3 mphMostly Cloudy
12:50 PM53.6 °F46.4 °F77 %29.71 in5.6 miSouth (170°)4.6 mphMostly Cloudy
1:20 PM60.8 °F48.2 °F63 %29.71 in6.2 miSE (140°)6.9 mph18.4 mphMostly Cloudy
1:50 PM60.8 °F48.2 °F63 %29.68 in6.2 miSE (140°)12.7 mphOvercast
2:00 PM62.0 °F47.0 °F48 %29.70 in6.0 miSE (140°)12.7 mphOvercast
2:20 PM60.8 °F48.2 °F63 %29.68 in6.2 miSE (140°)12.7 mphMostly Cloudy
2:50 PM62.6 °F46.4 °F55 %29.68 in6.2 miSE (140°)12.7 mphMostly Cloudy
3:20 PM62.6 °F46.4 °F55 %29.65 in6.2 miSE (140°)12.7 mphMostly Cloudy
3:50 PM62.6 °F50.0 °F63 %29.65 in6.2 miSE (130°)9.2 mphMostly Cloudy
4:20 PM62.6 °F50.0 °F63 %29.62 in6.2 miSE (130°)9.2 mphMostly Cloudy
4:50 PM60.8 °F48.2 °F63 %29.62 in6.2 miSE (130°)8.1 mphScattered Clouds
5:20 PM59.0 °F48.2 °F67 %29.62 in6.2 miSE (130°)10.4 mphMostly Cloudy
5:50 PM59.0 °F48.2 °F67 %29.62 in6.2 miSE (130°)10.4 mphMostly Cloudy
6:20 PM59.0 °F48.2 °F67 %29.62 in6.2 miSE (130°)10.4 mphMostly Cloudy
6:50 PM59.0 °F50.0 °F72 %29.62 in6.2 miSSE (150°)8.1 mphMostly Cloudy
7:20 PM55.4 °F48.2 °F77 %29.62 in6.2 miSSE (150°)8.1 mphOvercast
7:50 PM55.4 °F50.0 °F82 %29.62 in6.2 miSSE (150°)5.8 mphMostly Cloudy
8:00 PM56.0 °F49.0 °F71 %29.64 in6.0 miSSE (150°)5.8 mphOvercast
8:20 PM53.6 °F48.2 °F82 %29.62 in6.2 miWest (280°)8.1 mphMostly Cloudy
8:50 PM51.8 °F48.2 °F88 %29.62 in6.2 miWest (280°)6.9 mphMostly Cloudy
9:20 PM51.8 °F48.2 °F88 %29.62 in6.2 miCalmMostly Cloudy
9:50 PM51.8 °F48.2 °F88 %29.62 in6.2 miWest (270°)5.8 mphMostly Cloudy
10:20 PM51.8 °F48.2 °F88 %29.62 in6.2 miWNW (290°)5.8 mphMostly Cloudy
10:50 PM50.0 °F46.4 °F87 %29.62 in6.2 miVariable3.5 mphMostly Cloudy
11:20 PM50.0 °F46.4 °F87 %29.59 in6.2 miNW (310°)4.6 mphScattered Clouds
11:50 PM50.0 °F46.4 °F87 %29.62 in6.2 miCalmPartly Cloudy
Hourly data recorded from LGTS, located miles away from Thessaloniki, Greece







STORIES FROM OUR PARTNERS